COSMOS 2251 DEB, 39554

Orbit data source: Space-Track

COSMOS 2251 DEB, 39554 is space debris in LEO originally from a launch on Wed, 16 Jun 1993 UTC launched from the Plesetsk Missile And Space Complex (PKMTR). The debris from Iridium 33, an American commercial communications satellite, has been tracked extensively since its accidental collision with the defunct Russian satellite Cosmos 2251 in 2009. This event, occurring at high speed in low Earth orbit (LEO), generated thousands of pieces of space debris, significantly increasing the risk of further collisions. The Iridium 33 debris cloud has impacted space traffic management and orbital debris mitigation strategies, making it a subject of ongoing study in space situational awareness.

Loading next visibility...
Identifier
39554, 1993-036BUL
Orbit
LEO
Country
Flag of CISCIS
Related business
Manufacturer
Unknown
Mission
Spacecraft
Bus & Motor
Unknown
Mass
Unknown
Launch date (UTC)
1993-06-16 (32 years ago)
Launch vehicle
Unknown
Launch site
Plesetsk Missile And Space Complex (PKMTR)
Object type
Payload
Rocket body
Debris
Shape & HBR
Unknown shape, 0.1 m
Radar Cross Section
Small (<0.1 m²)

Expand to show TLE details & history
Last TLE update: 2 days ago

TLE from 2 days ago
0 COSMOS 2251 DEB
1 39554U 93036BUL 25298.93846486  .00049543  00000-0  34309-2 0  9997
2 39554  74.0198   3.0354 0003254 176.6132   0.7722 15.05403677636643
Epoch: 2025-10-25T22:31Z
TLE epoch observation values (Epoch: 2025-10-25T22:31:23.363Z)
Latitude
2.41406°
Longitude
169.93827°
Altitude
550.425 km
Speed
7.588 km/s
True Right ascension
12h 09m 23s
True Declination
2° 23' 57"
Sunlit
Object was in daylight at epoch
Visualization orbit readout
Latitude
Unknown
Longitude
Unknown
Altitude
Unknown
Speed
Unknown
Apparent Right ascension
Unknown
Apparent Declination
Unknown
Sunlit
N/A
Visualization observer readout
Local Sidereal Time
08:25:11
Azimuth
Unknown
Elevation
Unknown
Doppler factor
Unknown
Orbital elements
Apogee altitude
550.07 km
Perigee altitude
545.562 km
Semi-major axis
6,925.953 km
Eccentricity
0.00033
Inclination
74.0198°
RAAN
3.0354°
Arg. of periapsis
176.6132°
True anomaly
0.7727°
Mean anomaly
0.7722°
Eccentric anomaly
0.77245°
Mean motion
3.76551 °/min
Orbital period
95.6 mins
BSTAR
0.0034309
Loading maneuver chart data...
Computing Atmospheric mass density...

Documentation

Showing up to 5 results
|